Weather History for Honolulu, HI

Change the Weather History Date:

Thursday, May 2, 2013

  Actual Average Record
Temperature  
Mean Temperature 77 °F 77 °F  
Max Temperature 83 °F 84 °F 89 °F (1978)
Min Temperature 70 °F 70 °F 60 °F (1989)
Degree Days  
Heating Degree Days 0 0  
Month to date heating degree days 0 0  
Since 1 July heating degree days 0 0  
Cooling Degree Days 12 12  
Month to date cooling degree days 26 24  
Year to date cooling degree days 1114 1131  
Growing Degree Days 26 (Base 50)    
Moisture  
Dew Point 65 °F    
Average Humidity 72    
Maximum Humidity 90    
Minimum Humidity 54    
Precipitation  
Precipitation 0.01 in 0.03 in 3.44 in (1965)
Month to date precipitation 0.01 0.05  
Year to date precipitation 7.78 7.00  
Snow  
Snow 0.00 in - - ()
Month to date snowfall 0.0  
Since 1 July snowfall 0.0  
Snow Depth 0.00 in    
Sea Level Pressure  
Sea Level Pressure 30.06 in    
Wind  
Wind Speed 6 mph (NE)    
Max Wind Speed 18 mph    
Max Gust Speed 23 mph    
Visibility 10 miles    
Events      
T = Trace of Precipitation, MM = Missing Value Source: NWS Daily Summary

Daily Weather History Graph

Daily Weather History Graph

Search for Another Location

Airport:

Trip Planner

Search our weather history database for the weather conditions in past years. The results will help you decide how hot, cold, wet, or windy it might be!

Date:

Astronomy

May. 02, 2013 Rise Set
Actual Time 5:59 AM HST 6:57 PM HST
Civil Twilight 5:36 AM HST 7:20 PM HST
Nautical Twilight 5:09 AM HST 7:48 PM HST
Astronomical Twilight 4:40 AM HST 8:16 PM HST
Moon 1:01 AM HST (5/2) 12:49 PM HST (5/2)
Length of Visible Light 13h 44m
Length of Day
12h 57m
Last Quarter, 45% of the Moon is Illuminated
May 2
Last Quarter
May 9
New
May 17
First Quarter
May 24
Full
May 31
Last Quarter

Hourly Weather History & Observations

Time (HST) Temp. Heat Index Dew Point Humidity Pressure Visibility Wind Dir Wind Speed Gust Speed Precip Events Conditions
12:53 AM 73.9 °F - 64.9 °F 73% 30.06 in 10.0 mi NE 6.9 mph - N/A   Scattered Clouds
1:53 AM 73.0 °F - 64.9 °F 76% 30.05 in 10.0 mi North 4.6 mph - N/A   Mostly Cloudy
2:53 AM 73.0 °F - 66.0 °F 79% 30.03 in 10.0 mi ENE 4.6 mph - N/A   Mostly Cloudy
3:53 AM 72.0 °F - 66.0 °F 81% 30.02 in 10.0 mi Calm Calm - N/A   Scattered Clouds
4:53 AM 72.0 °F - 66.0 °F 81% 30.04 in 10.0 mi Calm Calm - N/A   Mostly Cloudy
5:21 AM 73.4 °F - 66.2 °F 78% 30.05 in 10.0 mi Calm Calm - 0.00 in   Mostly Cloudy
5:53 AM 73.0 °F - 66.0 °F 79% 30.05 in 10.0 mi Calm Calm - 0.00 in   Mostly Cloudy
6:53 AM 71.1 °F - 68.0 °F 90% 30.07 in 10.0 mi North 4.6 mph - 0.01 in   Scattered Clouds
7:53 AM 73.9 °F - 68.0 °F 82% 30.08 in 10.0 mi NNW 4.6 mph - N/A   Scattered Clouds
8:53 AM 78.1 °F - 66.0 °F 66% 30.09 in 10.0 mi ENE 9.2 mph - N/A   Scattered Clouds
9:53 AM 79.0 °F - 64.9 °F 62% 30.09 in 10.0 mi NE 5.8 mph - 0.00 in   Scattered Clouds
10:53 AM 80.1 °F 82.1 °F 66.0 °F 62% 30.09 in 10.0 mi NE 9.2 mph - N/A   Mostly Cloudy
11:53 AM 79.0 °F - 66.9 °F 66% 30.09 in 10.0 mi SE 11.5 mph - 0.00 in   Mostly Cloudy
12:27 PM 78.8 °F - 66.2 °F 65% 30.08 in 10.0 mi ENE 6.9 mph - 0.00 in   Mostly Cloudy
12:53 PM 80.1 °F 82.1 °F 66.0 °F 62% 30.07 in 10.0 mi Variable 5.8 mph - 0.00 in   Mostly Cloudy
1:53 PM 80.1 °F 81.9 °F 64.9 °F 60% 30.05 in 10.0 mi ENE 12.7 mph - 0.00 in   Mostly Cloudy
2:53 PM 81.0 °F 81.9 °F 62.1 °F 52% 30.04 in 10.0 mi ENE 16.1 mph - N/A   Scattered Clouds
3:53 PM 81.0 °F 82.2 °F 63.0 °F 54% 30.04 in 10.0 mi ENE 16.1 mph - N/A   Scattered Clouds
4:53 PM 82.0 °F 83.1 °F 63.0 °F 52% 30.03 in 10.0 mi NE 12.7 mph - N/A   Scattered Clouds
5:53 PM 80.1 °F 81.7 °F 64.0 °F 58% 30.04 in 10.0 mi ENE 12.7 mph - N/A   Partly Cloudy
6:53 PM 77.0 °F - 64.0 °F 64% 30.06 in 10.0 mi ENE 15.0 mph - N/A   Partly Cloudy
7:53 PM 75.0 °F - 64.9 °F 71% 30.07 in 10.0 mi ENE 11.5 mph - N/A   Partly Cloudy
8:53 PM 75.0 °F - 64.0 °F 69% 30.09 in 10.0 mi NE 5.8 mph - N/A   Partly Cloudy
9:53 PM 73.9 °F - 64.0 °F 71% 30.10 in 10.0 mi East 5.8 mph - N/A   Partly Cloudy
10:53 PM 73.9 °F - 63.0 °F 68% 30.10 in 10.0 mi ENE 5.8 mph - N/A   Partly Cloudy
11:53 PM 73.0 °F - 63.0 °F 71% 30.09 in 10.0 mi North 3.5 mph - N/A   Partly Cloudy